Overview Statistics Trail Chart Weather Telemetry Raw packets
 

This is the latest recevied weather packets stored in our database for station/object YD2CLX-11. If no packets are shown the sender has not sent any weather packets the latest 10 day(s).

<< 22 23 24 25 26 27 28 >>
Time Temp. Humidity Pressure Rain* Wind** Luminosity Snow
1788256477 30.56° C 54% 997.7 hPa - - - -
1788255876 31.67° C 52% 997.7 hPa - - - -
1788255275 31.11° C 50% 997.7 hPa - - - -
1788254674 31.67° C 49% 997.6 hPa - - - -
1788254073 32.22° C 49% 997.5 hPa - - - -
1788253472 32.78° C 48% 997.3 hPa - - - -
1788252872 32.78° C 47% 997.2 hPa - - - -
1788252271 32.78° C 47% 997.1 hPa - - - -
1788251670 33.33° C 45% 997.1 hPa - - - -
1788251069 33.33° C 45% 997.2 hPa - - - -
1788250467 33.89° C 44% 997.1 hPa - - - -
1788249866 34.44° C 43% 997 hPa - - - -
1788249264 34.44° C 42% 996.9 hPa - - - -
1788248664 34.44° C 44% 996.9 hPa - - - -
1788248063 34.44° C 42% 996.8 hPa - - - -
1788247462 35.56° C 41% 996.8 hPa - - - -
1788246861 35° C 42% 996.8 hPa - - - -
1788246259 35° C 41% 996.9 hPa - - - -
1788245658 35° C 41% 997.1 hPa - - - -
1788245057 35.56° C 41% 997.2 hPa - - - -
1788244456 35° C 41% 997.3 hPa - - - -
1788243855 35° C 41% 997.5 hPa - - - -
1788243254 35.56° C 40% 997.5 hPa - - - -
1788242653 35.56° C 38% 997.6 hPa - - - -
1788242052 36.67° C 36% 997.7 hPa - - - -

* Rain since midnight (hover to see other rain measurements)
** Current wind speed in m/s (hover to see current wind gust speed)